| time (UTC) | temp C | wind direction | speed KPH | gust KPH | rain 1hr cm | rain 24hr cm | rain mn cm | humidity % | barometer mb |
| 20260504045321 | 7 | 139 | 0.0 | 1.6 | 0.00 | 0.00 | 0.00 | 59 | 1015.7 |
| 20260504044818 | 7 | 113 | 1.6 | 1.6 | 0.00 | 0.00 | 0.00 | 59 | 1015.7 |
| 20260504044315 | 7 | 56 | 0.0 | 1.6 | 0.00 | 0.00 | 0.00 | 59 | 1015.8 |
| 20260504043812 | 7 | 73 | 0.0 | 0.0 | 0.00 | 0.00 | 0.00 | 59 | 1015.6 |
| 20260504043309 | 7 | 185 | 1.6 | 3.2 | 0.00 | 0.00 | 0.00 | 59 | 1015.9 |
| 20260504042807 | 7 | 18 | 0.0 | 0.0 | 0.00 | 0.00 | 0.00 | 58 | 1015.7 |
| 20260504042304 | 7 | 163 | 1.6 | 3.2 | 0.00 | 0.00 | 0.00 | 58 | 1015.4 |
| 20260504041759 | 7 | 70 | 0.0 | 0.0 | 0.00 | 0.00 | 0.00 | 58 | 1015.6 |
| 20260504041255 | 7 | 70 | 0.0 | 1.6 | 0.00 | 0.00 | 0.00 | 57 | 1015.6 |
| 20260504040752 | 7 | 72 | 0.0 | 0.0 | 0.00 | 0.00 | 0.00 | 57 | 1015.5 |
| 20260504040249 | 7 | 70 | 0.0 | 0.0 | 0.00 | 0.00 | 0.00 | 57 | 1015.7 |
| 20260504035745 | 7 | 72 | 0.0 | 0.0 | 0.00 | 0.00 | 0.00 | 58 | 1015.7 |
| 20260504035242 | 8 | 72 | 0.0 | 0.0 | 0.00 | 0.00 | 0.00 | 57 | 1015.7 |
| 20260504034740 | 7 | 98 | 0.0 | 0.0 | 0.00 | 0.00 | 0.00 | 57 | 1015.7 |
| 20260504034237 | 7 | 100 | 0.0 | 0.0 | 0.00 | 0.00 | 0.00 | 58 | 1015.8 |
| 20260504033735 | 7 | 100 | 0.0 | 0.0 | 0.00 | 0.00 | 0.00 | 59 | 1015.8 |
| 20260504033232 | 7 | 100 | 0.0 | 0.0 | 0.00 | 0.00 | 0.00 | 59 | 1015.8 |
| 20260504032729 | 7 | 100 | 0.0 | 0.0 | 0.00 | 0.00 | 0.00 | 58 | 1015.7 |
| 20260504032226 | 7 | 101 | 0.0 | 0.0 | 0.00 | 0.00 | 0.00 | 58 | 1015.7 |
| 20260504031722 | 8 | 101 | 0.0 | 0.0 | 0.00 | 0.00 | 0.00 | 58 | 1015.7 |
| 20260504031220 | 8 | 101 | 0.0 | 0.0 | 0.00 | 0.00 | 0.00 | 57 | 1015.7 |
| 20260504030716 | 8 | 101 | 0.0 | 0.0 | 0.00 | 0.00 | 0.00 | 55 | 1015.7 |
| 20260504030213 | 8 | 100 | 0.0 | 0.0 | 0.00 | 0.00 | 0.00 | 55 | 1015.8 |
| 20260504025709 | 8 | 83 | 0.0 | 0.0 | 0.00 | 0.00 | 0.00 | 54 | 1015.8 |
| 20260504025206 | 8 | 84 | 0.0 | 0.0 | 0.00 | 0.00 | 0.00 | 54 | 1015.9 |
| 20260504024704 | 8 | 88 | 0.0 | 1.6 | 0.00 | 0.00 | 0.00 | 55 | 1015.9 |
| 20260504024200 | 9 | 100 | 0.0 | 0.0 | 0.00 | 0.00 | 0.00 | 54 | 1016.1 |
| 20260504023656 | 8 | 127 | 1.6 | 1.6 | 0.00 | 0.00 | 0.00 | 54 | 1016.0 |
| 20260504023152 | 9 | 110 | 0.0 | 0.0 | 0.00 | 0.00 | 0.00 | 54 | 1015.9 |
| 20260504022649 | 9 | 114 | 0.0 | 0.0 | 0.00 | 0.00 | 0.00 | 52 | 1015.8 |
| 20260504022144 | 9 | 47 | 0.0 | 0.0 | 0.00 | 0.00 | 0.00 | 53 | 1015.9 |
| 20260504021643 | 8 | 66 | 0.0 | 0.0 | 0.00 | 0.00 | 0.00 | 54 | 1015.9 |
| 20260504021139 | 8 | 66 | 0.0 | 0.0 | 0.00 | 0.00 | 0.00 | 54 | 1016.1 |
| 20260504020637 | 8 | 67 | 0.0 | 0.0 | 0.00 | 0.00 | 0.00 | 55 | 1016.1 |
| 20260504020132 | 8 | 76 | 0.0 | 0.0 | 0.00 | 0.00 | 0.00 | 56 | 1016.2 |
| 20260504015629 | 8 | 78 | 0.0 | 0.0 | 0.00 | 0.00 | 0.00 | 55 | 1016.0 |
| 20260504015126 | 8 | 78 | 0.0 | 0.0 | 0.00 | 0.00 | 0.00 | 54 | 1016.0 |
| 20260504014621 | 8 | 78 | 0.0 | 0.0 | 0.00 | 0.00 | 0.00 | 54 | 1016.2 |
| 20260504014119 | 9 | 78 | 0.0 | 0.0 | 0.00 | 0.00 | 0.00 | 53 | 1015.8 |
| 20260504013616 | 9 | 71 | 0.0 | 0.0 | 0.00 | 0.00 | 0.00 | 52 | 1016.0 |
| 20260504013113 | 9 | 66 | 0.0 | 0.0 | 0.00 | 0.00 | 0.00 | 54 | 1015.9 |
| 20260504012610 | 10 | 67 | 0.0 | 0.0 | 0.00 | 0.00 | 0.00 | 52 | 1015.8 |
| 20260504012108 | 10 | 66 | 0.0 | 0.0 | 0.00 | 0.00 | 0.00 | 52 | 1015.8 |
| 20260504011605 | 10 | 97 | 0.0 | 0.0 | 0.00 | 0.00 | 0.00 | 51 | 1015.7 |
| 20260504011101 | 10 | 37 | 0.0 | 0.0 | 0.00 | 0.00 | 0.00 | 51 | 1015.6 |
| 20260504010556 | 10 | 17 | 0.0 | 0.0 | 0.00 | 0.00 | 0.00 | 49 | 1015.7 |
| 20260504010053 | 10 | 50 | 0.0 | 1.6 | 0.00 | 0.00 | 0.00 | 49 | 1015.8 |
| 20260504005550 | 10 | 198 | 1.6 | 1.6 | 0.00 | 0.00 | 0.00 | 48 | 1015.5 |
| 20260504005047 | 10 | 41 | 0.0 | 0.0 | 0.00 | 0.00 | 0.00 | 49 | 1015.7 |
| 20260504004545 | 11 | 82 | 0.0 | 0.0 | 0.00 | 0.00 | 0.00 | 48 | 1015.7 |
| 20260504004042 | 11 | 44 | 0.0 | 0.0 | 0.00 | 0.00 | 0.00 | 48 | 1015.6 |
| 20260504003538 | 11 | 332 | 1.6 | 1.6 | 0.00 | 0.00 | 0.00 | 47 | 1015.7 |
| 20260504003035 | 11 | 273 | 1.6 | 3.2 | 0.00 | 0.00 | 0.00 | 47 | 1015.7 |
| 20260504002532 | 11 | 316 | 6.4 | 9.7 | 0.00 | 0.00 | 0.00 | 47 | 1015.7 |
| 20260504002029 | 11 | 311 | 0.0 | 1.6 | 0.00 | 0.00 | 0.00 | 46 | 1015.5 |
| 20260504001527 | 11 | 29 | 0.0 | 0.0 | 0.00 | 0.00 | 0.00 | 47 | 1015.7 |
| 20260504001023 | 11 | 66 | 0.0 | 0.0 | 0.00 | 0.00 | 0.00 | 46 | 1015.7 |
| 20260504000520 | 11 | 239 | 1.6 | 1.6 | 0.00 | 0.00 | 0.00 | 45 | 1015.5 |
| 20260504000017 | 12 | 95 | 1.6 | 1.6 | 0.00 | 0.00 | 0.00 | 45 | 1015.5 |
| 20260503235515 | 12 | 143 | 1.6 | 3.2 | 0.00 | 0.00 | 0.00 | 45 | 1015.4 |
| 20260503235011 | 12 | 303 | 6.4 | 11.3 | 0.00 | 0.00 | 0.00 | 45 | 1015.5 |
| 20260503234509 | 12 | 44 | 1.6 | 1.6 | 0.00 | 0.00 | 0.00 | 44 | 1015.5 |
| 20260503234008 | 12 | 285 | 8.0 | 11.3 | 0.00 | 0.00 | 0.00 | 43 | 1015.7 |
| 20260503233503 | 12 | 232 | 8.0 | 11.3 | 0.00 | 0.00 | 0.00 | 43 | 1015.6 |
| 20260503232959 | 12 | 345 | 6.4 | 11.3 | 0.00 | 0.00 | 0.00 | 43 | 1015.6 |
| 20260503232456 | 13 | 282 | 3.2 | 4.8 | 0.00 | 0.00 | 0.00 | 43 | 1015.7 |
| 20260503231954 | 13 | 274 | 4.8 | 4.8 | 0.00 | 0.00 | 0.00 | 43 | 1015.7 |
| 20260503231452 | 13 | 217 | 1.6 | 3.2 | 0.00 | 0.00 | 0.00 | 43 | 1015.6 |
| 20260503230948 | 13 | 303 | 3.2 | 6.4 | 0.00 | 0.00 | 0.00 | 43 | 1015.6 |
| 20260503230445 | 13 | 336 | 4.8 | 6.4 | 0.00 | 0.00 | 0.00 | 42 | 1015.7 |
| 20260503225942 | 13 | 262 | 3.2 | 3.2 | 0.00 | 0.00 | 0.00 | 42 | 1015.6 |
| 20260503225439 | 13 | 208 | 1.6 | 1.6 | 0.00 | 0.00 | 0.00 | 43 | 1015.6 |
| 20260503224934 | 13 | 300 | 8.0 | 9.7 | 0.00 | 0.00 | 0.00 | 41 | 1015.8 |
| 20260503224432 | 13 | 72 | 1.6 | 3.2 | 0.00 | 0.00 | 0.00 | 43 | 1015.6 |
| 20260503223929 | 13 | 282 | 8.0 | 11.3 | 0.00 | 0.00 | 0.00 | 41 | 1015.8 |
| 20260503223427 | 13 | 255 | 3.2 | 4.8 | 0.00 | 0.00 | 0.00 | 42 | 1015.9 |
| 20260503222922 | 13 | 298 | 9.7 | 12.9 | 0.00 | 0.00 | 0.00 | 40 | 1015.8 |
| 20260503222421 | 13 | 218 | 4.8 | 4.8 | 0.00 | 0.00 | 0.00 | 41 | 1015.9 |
| 20260503221919 | 13 | 273 | 9.7 | 11.3 | 0.00 | 0.00 | 0.00 | 40 | 1015.7 |
| 20260503221417 | 13 | 286 | 3.2 | 6.4 | 0.00 | 0.00 | 0.00 | 40 | 1015.7 |
| 20260503220913 | 14 | 286 | 14.5 | 17.7 | 0.00 | 0.00 | 0.00 | 38 | 1015.9 |
| 20260503220410 | 13 | 263 | 4.8 | 4.8 | 0.00 | 0.00 | 0.00 | 42 | 1015.9 |
| 20260503215907 | 13 | 315 | 9.7 | 11.3 | 0.00 | 0.00 | 0.00 | 41 | 1015.8 |
| 20260503215404 | 13 | 295 | 4.8 | 6.4 | 0.00 | 0.00 | 0.00 | 40 | 1016.0 |
| 20260503214901 | 13 | 167 | 4.8 | 4.8 | 0.00 | 0.00 | 0.00 | 43 | 1015.8 |
| 20260503214359 | 14 | 299 | 9.7 | 14.5 | 0.00 | 0.00 | 0.00 | 39 | 1015.8 |
| 20260503213856 | 14 | 321 | 14.5 | 17.7 | 0.00 | 0.00 | 0.00 | 39 | 1015.8 |
| 20260503213354 | 15 | 352 | 3.2 | 3.2 | 0.00 | 0.00 | 0.00 | 40 | 1015.6 |
| 20260503212850 | 15 | 259 | 12.9 | 17.7 | 0.00 | 0.00 | 0.00 | 38 | 1015.4 |
| 20260503212348 | 13 | 323 | 3.2 | 6.4 | 0.00 | 0.00 | 0.00 | 40 | 1015.8 |
| 20260503211845 | 13 | 354 | 3.2 | 4.8 | 0.00 | 0.00 | 0.00 | 40 | 1015.6 |
| 20260503211342 | 15 | 322 | 4.8 | 6.4 | 0.00 | 0.00 | 0.00 | 39 | 1015.8 |
| 20260503210837 | 14 | 247 | 9.7 | 12.9 | 0.00 | 0.00 | 0.00 | 39 | 1015.8 |
| 20260503210335 | 13 | 224 | 3.2 | 4.8 | 0.00 | 0.00 | 0.00 | 40 | 1015.9 |
| 20260503205829 | 13 | 299 | 8.0 | 9.7 | 0.00 | 0.00 | 0.00 | 40 | 1015.8 |
| 20260503205326 | 13 | 303 | 8.0 | 12.9 | 0.00 | 0.00 | 0.00 | 39 | 1016.0 |
| 20260503204823 | 14 | 223 | 6.4 | 9.7 | 0.00 | 0.00 | 0.00 | 40 | 1016.0 |
| 20260503204320 | 13 | 318 | 6.4 | 9.7 | 0.00 | 0.00 | 0.00 | 40 | 1016.2 |
| 20260503203817 | 13 | 289 | 16.1 | 22.5 | 0.00 | 0.00 | 0.00 | 40 | 1016.1 |
| 20260503203315 | 13 | 288 | 6.4 | 6.4 | 0.00 | 0.00 | 0.00 | 41 | 1016.1 |
| 20260503202811 | 14 | 122 | 1.6 | 1.6 | 0.00 | 0.00 | 0.00 | 39 | 1016.2 |
| 20260503202310 | 13 | 242 | 4.8 | 9.7 | 0.00 | 0.00 | 0.00 | 42 | 1016.0 |
| 20260503201808 | 13 | 265 | 12.9 | 14.5 | 0.00 | 0.00 | 0.00 | 40 | 1016.1 |
| 20260503201304 | 13 | 231 | 6.4 | 9.7 | 0.00 | 0.00 | 0.00 | 41 | 1016.4 |
| 20260503200801 | 13 | 293 | 3.2 | 4.8 | 0.00 | 0.00 | 0.00 | 42 | 1016.3 |
| 20260503200257 | 13 | 318 | 20.9 | 27.4 | 0.00 | 0.00 | 0.00 | 40 | 1016.1 |
| 20260503195755 | 13 | 268 | 4.8 | 6.4 | 0.00 | 0.00 | 0.00 | 41 | 1016.3 |
| 20260503195252 | 13 | 320 | 9.7 | 14.5 | 0.00 | 0.00 | 0.00 | 39 | 1016.5 |
| 20260503194749 | 13 | 321 | 9.7 | 17.7 | 0.00 | 0.00 | 0.00 | 41 | 1016.6 |
| 20260503194244 | 12 | 263 | 14.5 | 16.1 | 0.00 | 0.00 | 0.00 | 40 | 1016.5 |
| 20260503193741 | 13 | 279 | 12.9 | 16.1 | 0.00 | 0.00 | 0.00 | 39 | 1017.0 |
| 20260503193237 | 14 | 296 | 9.7 | 11.3 | 0.00 | 0.00 | 0.00 | 38 | 1016.9 |
| 20260503192732 | 13 | 218 | 11.3 | 16.1 | 0.00 | 0.00 | 0.00 | 39 | 1017.0 |
| 20260503192228 | 13 | 98 | 6.4 | 9.7 | 0.00 | 0.00 | 0.00 | 40 | 1017.1 |
| 20260503191725 | 13 | 275 | 8.0 | 9.7 | 0.00 | 0.00 | 0.00 | 41 | 1016.9 |
| 20260503191222 | 13 | 230 | 3.2 | 6.4 | 0.00 | 0.00 | 0.00 | 43 | 1017.1 |
| 20260503190719 | 13 | 329 | 14.5 | 17.7 | 0.00 | 0.00 | 0.00 | 41 | 1017.2 |
| 20260503190215 | 13 | 288 | 6.4 | 6.4 | 0.00 | 0.00 | 0.00 | 42 | 1017.1 |
| 20260503185713 | 13 | 264 | 9.7 | 12.9 | 0.00 | 0.00 | 0.00 | 41 | 1017.3 |
| 20260503185208 | 13 | 310 | 4.8 | 4.8 | 0.00 | 0.00 | 0.00 | 41 | 1017.3 |
| 20260503184703 | 12 | 248 | 9.7 | 12.9 | 0.00 | 0.00 | 0.00 | 43 | 1017.3 |
| 20260503184200 | 12 | 283 | 8.0 | 12.9 | 0.00 | 0.00 | 0.00 | 43 | 1017.6 |
| 20260503183656 | 12 | 22 | 6.4 | 9.7 | 0.00 | 0.00 | 0.00 | 42 | 1017.4 |
| 20260503183153 | 12 | 301 | 4.8 | 4.8 | 0.00 | 0.00 | 0.00 | 44 | 1017.3 |
| 20260503182651 | 12 | 252 | 9.7 | 12.9 | 0.00 | 0.00 | 0.00 | 42 | 1017.6 |
| 20260503182150 | 12 | 226 | 6.4 | 6.4 | 0.00 | 0.00 | 0.00 | 44 | 1017.9 |
| 20260503181646 | 12 | 324 | 6.4 | 6.4 | 0.00 | 0.00 | 0.00 | 41 | 1017.8 |
| 20260503181143 | 12 | 269 | 8.0 | 9.7 | 0.00 | 0.00 | 0.00 | 43 | 1017.9 |
| 20260503180640 | 12 | 280 | 9.7 | 16.1 | 0.00 | 0.00 | 0.00 | 42 | 1018.0 |
| 20260503180138 | 12 | 65 | 0.0 | 1.6 | 0.00 | 0.00 | 0.00 | 43 | 1018.0 |
| 20260503175635 | 13 | 247 | 8.0 | 9.7 | 0.00 | 0.00 | 0.00 | 41 | 1018.0 |
| 20260503175132 | 12 | 189 | 6.4 | 6.4 | 0.00 | 0.00 | 0.00 | 44 | 1018.0 |
| 20260503174628 | 12 | 271 | 4.8 | 6.4 | 0.00 | 0.00 | 0.00 | 46 | 1017.9 |
| 20260503174126 | 12 | 341 | 3.2 | 4.8 | 0.00 | 0.00 | 0.00 | 41 | 1017.9 |
| 20260503173620 | 11 | 265 | 8.0 | 12.9 | 0.00 | 0.00 | 0.00 | 44 | 1018.0 |
| 20260503173117 | 11 | 248 | 9.7 | 14.5 | 0.00 | 0.00 | 0.00 | 42 | 1018.3 |
| 20260503172614 | 12 | 307 | 11.3 | 12.9 | 0.00 | 0.00 | 0.00 | 40 | 1018.2 |
| 20260503172112 | 11 | 333 | 3.2 | 4.8 | 0.00 | 0.00 | 0.00 | 45 | 1018.2 |
| 20260503171608 | 12 | 345 | 6.4 | 12.9 | 0.00 | 0.00 | 0.00 | 41 | 1018.2 |
| 20260503171105 | 11 | 251 | 4.8 | 6.4 | 0.00 | 0.00 | 0.00 | 43 | 1018.4 |
| 20260503170601 | 11 | 296 | 6.4 | 11.3 | 0.00 | 0.00 | 0.00 | 43 | 1018.4 |
| 20260503150954 | 9 | 220 | 4.8 | 6.4 | 0.00 | 0.00 | 0.00 | 51 | 1019.0 |
| 20260503150450 | 9 | 214 | 6.4 | 11.3 | 0.00 | 0.00 | 0.00 | 49 | 1019.3 |
| 20260503131337 | 6 | 286 | 6.4 | 6.4 | 0.00 | 0.00 | 0.00 | 65 | 1019.7 |
| 20260503130830 | 5 | 254 | 4.8 | 4.8 | 0.00 | 0.00 | 0.00 | 66 | 1019.5 |
| 20260503130327 | 5 | 302 | 8.0 | 9.7 | 0.00 | 0.00 | 0.00 | 66 | 1019.7 |
| 20260503110720 | 0 | 73 | 0.0 | 0.0 | 0.00 | 0.00 | 0.00 | 87 | 1018.8 |
| 20260503110217 | 0 | 92 | 0.0 | 0.0 | 0.00 | 0.00 | 0.00 | 88 | 1018.7 |
| 20260503100143 | 0 | 22 | 0.0 | 0.0 | 0.00 | 0.00 | 0.00 | 88 | 1018.1 |
| 20260503081538 | 0 | 8 | 1.6 | 1.6 | 0.00 | 0.00 | 0.00 | 86 | 1018.1 |
| 20260503081036 | 0 | 356 | 1.6 | 1.6 | 0.00 | 0.00 | 0.00 | 86 | 1018.1 |
| 20260503080532 | 0 | 357 | 1.6 | 1.6 | 0.00 | 0.00 | 0.00 | 87 | 1018.0 |
| 20260503072506 | 1 | 341 | 1.6 | 1.6 | 0.00 | 0.00 | 0.00 | 83 | 1017.7 |
| 20260503072003 | 1 | 305 | 0.0 | 1.6 | 0.00 | 0.00 | 0.00 | 81 | 1017.8 |
| 20260503071500 | 1 | 353 | 0.0 | 0.0 | 0.00 | 0.00 | 0.00 | 81 | 1017.7 |
| 20260503070955 | 1 | 353 | 0.0 | 0.0 | 0.00 | 0.00 | 0.00 | 81 | 1017.6 |
| 20260503070453 | 1 | 347 | 0.0 | 1.6 | 0.00 | 0.00 | 0.00 | 80 | 1017.7 |
| 20260503054906 | 1 | 337 | 3.2 | 3.2 | 0.00 | 0.00 | 0.00 | 80 | 1017.9 |
| 20260503054402 | 1 | 347 | 0.0 | 1.6 | 0.00 | 0.00 | 0.00 | 79 | 1017.8 |
| 20260503053900 | 1 | 344 | 1.6 | 1.6 | 0.00 | 0.00 | 0.00 | 79 | 1017.8 |
| 20260503053358 | 0 | 315 | 1.6 | 3.2 | 0.00 | 0.00 | 0.00 | 83 | 1017.8 |
| 20260503052854 | 0 | 340 | 1.6 | 3.2 | 0.00 | 0.00 | 0.00 | 85 | 1017.8 |
| 20260503052351 | 0 | 322 | 1.6 | 1.6 | 0.00 | 0.00 | 0.00 | 85 | 1018.0 |
| 20260503051847 | 0 | 320 | 1.6 | 3.2 | 0.00 | 0.00 | 0.00 | 85 | 1018.0 |
| 20260503051344 | 0 | 358 | 1.6 | 1.6 | 0.00 | 0.00 | 0.00 | 85 | 1018.1 |
| 20260503050841 | 0 | 358 | 1.6 | 1.6 | 0.00 | 0.00 | 0.00 | 85 | 1018.0 |
| 20260503050337 | 0 | 358 | 1.6 | 1.6 | 0.00 | 0.00 | 0.00 | 84 | 1018.1 |
| 20260503045835 | 0 | 358 | 0.0 | 1.6 | 0.00 | 0.00 | 0.00 | 84 | 1018.2 |